Probability
3 3 3 0 0 0 0 0 0 0 0 0 3 3 3 3 3 3 3 0 0 0 0 0 0 0 0 0 0 0 0 0 0 0 0 0 0 0
3 0 0 0 0 0 0 0 0 0 0 0 0 3 3 3 3 3 3 0 0 0 0 0 0 0 0 0 0 0 0 0 0 0 0 0 0 0
0 0 0 0 0 0 0 0 0 0 0 0 0 0 3 3 3 3 3 3 0 0 0 0 0 0 0 0 0 0 0 0 0 0 0 0 0 0
0 0 0 0 0 0 0 0 0 0 0 0 0 0 0 3 6 3 3 3 0 0 0 0 0 0 0 0 0 0 0 0 0 0 0 0 0 0
0 0 0 0 0 0 0 0 0 0 0 0 0 0 0 3 3 3 3 3 0 0 0 0 0 0 0 0 0 0 0 0 0 0 0 0 0 0
3 0 0 0 0 0 0 0 0 0 0 0 0 0 0 0 3 3 3 0 0 0 0 0 0 0 0 0 0 0 0 0 0 0 0 0 0 0
3 0 0 0 0 0 0 0 0 0 0 0 0 0 0 3 0 0 0 0 0 0 0 0 0 0 0 0 0 0 0 0 0 0 0 0 0 0
0 0 0 0 0 0 0 0 0 0 0 0 0 0 0 0 3 0 0 0 0 0 0 0 0 0 0 0 0 0 0 0 0 0 0 0 0 0
0 0 0 0 0 0 0 0 0 0 0 0 0 0 0 0 3 0 0 0 0 0 0 0 0 0 0 0 0 0 0 0 0 0 0 0 0 0
0 0 0 0 0 0 0 0 0 0 0 0 3 0 0 0 0 0 0 0 0 0 0 0 0 0 0 0 0 0 0 0 0 0 0 0 0 0
0 0 0 0 0 0 0 0 0 0 0 0 0 0 0 0 0 0 0 0 0 0 0 0 0 0 0 0 0 0 0 0 0 0 0 0 0 0
0 0 0 0 0 0 0 0 0 0 0 0 0 0 0 0 0 0 0 0 0 0 0 0 0 0 0 0 0 0 0 0 0 0 0 0 0 0
0 0 0 0 0 0 0 0 0 0 0 0 0 0 0 0 0 0 0 0 0 0 0 0 0 0 0 0 0 0 0 0 0 0 0 0 0 0
0 0 0 0 0 0 0 0 0 0 0 0 0 0 0 0 0 0 0 0 0 0 3 0 0 0 0 0 0 0 0 0 0 0 0 0 0 0
0 0 0 0 0 0 0 0 0 0 3 0 0 0 0 0 3 0 0 0 0 0 0 0 0 0 0 0 0 0 0 0 0 0 0 0 0 0
0 0 0 0 0 0 0 0 0 0 0 0 0 0 0 0 0 0 0 0 0 0 0 0 0 0 0 0 0 0 0 0 0 0 0 0 0 0
0 0 0 0 0 0 0 0 0 0 0 0 0 0 0 0 0 0 0 0 0 0 0 0 0 0 0 0 0 0 0 0 0 0 0 0 0 0
0 0 0 0 0 0 0 0 0 0 0 0 0 0 0 0 0 0 0 0 0 0 0 0 0 0 0 0 0 0 0 0 0 0 0 0 0 0
0 0 0 0 0 0 0 0 0 0 0 0 0 0 0 0 0 0 0 0 0 0 0 0 0 0 0 0 0 0 0 0 0 0 0 0 0 0
0 0 0 0 0 0 0 0 0 0 0 0 0 0 0 0 0 0 0 0 0 0 0 0 0 0 0 0 0 0 0 0 0 0 0 0 0 0
0 0 0 0 0 0 0 0 0 0 0 0 0 0 0 0 0 0 0 0 0 0 0 0 0 0 0 0 0 0 0 0 0 0 0 0 0 0
0 0 0 0 0 0 0 0 0 0 0 0 0 0 0 0 0 0 0 0 0 0 0 0 0 0 0 0 0 0 0 0 0 0 0 0 0 0
0 0 0 0 0 0 0 0 0 0 0 0 0 0 0 0 0 0 0 0 0 0 0 0 0 0 0 0 0 0 0 0 0 0 0 0 0 0
Height
5721 5720 5718 5717 5716 5715 5714 5714 5714 5713 5714 5713 5713 5713 5712 5712 5713 5712 5712 5712 5711 5711 5711 5711 5711 5712 5713 5715 5716 5718 5720 5722 5725 5728 5731 5734 5737 5740
5715 5714 5712 5711 5709 5708 5707 5707 5706 5705 5705 5706 5705 5705 5704 5704 5704 5704 5704 5703 5702 5702 5701 5702 5702 5703 5704 5705 5706 5708 5710 5712 5715 5718 5721 5724 5727 5730
5709 5707 5705 5704 5702 5701 5700 5699 5699 5698 5697 5698 5697 5697 5697 5697 5696 5696 5695 5694 5693 5693 5692 5692 5693 5693 5694 5695 5697 5698 5700 5702 5704 5707 5710 5712 5715 5718
5704 5701 5699 5697 5696 5694 5693 5692 5691 5690 5690 5690 5690 5689 5689 5689 5688 5687 5687 5686 5685 5684 5683 5683 5683 5684 5685 5686 5687 5688 5690 5692 5694 5696 5699 5702 5704 5706
5698 5695 5693 5691 5689 5687 5686 5685 5684 5683 5682 5682 5682 5681 5680 5680 5680 5679 5678 5677 5676 5675 5675 5674 5674 5675 5675 5676 5677 5679 5680 5682 5684 5686 5688 5690 5692 5695
5692 5689 5686 5684 5682 5681 5679 5678 5676 5676 5675 5674 5674 5673 5672 5671 5671 5671 5670 5669 5668 5667 5666 5666 5666 5666 5666 5667 5668 5669 5671 5672 5674 5676 5677 5679 5681 5683
5686 5683 5680 5678 5676 5674 5672 5671 5669 5668 5667 5666 5665 5665 5664 5663 5663 5662 5662 5661 5660 5659 5658 5658 5658 5658 5658 5659 5660 5660 5662 5663 5664 5666 5667 5669 5670 5672
5680 5677 5674 5671 5670 5667 5665 5664 5662 5661 5660 5659 5658 5657 5657 5655 5655 5654 5653 5653 5652 5652 5650 5650 5650 5650 5650 5651 5651 5652 5653 5654 5655 5656 5657 5658 5660 5661
5673 5670 5667 5665 5663 5661 5659 5657 5656 5654 5653 5651 5651 5650 5649 5648 5647 5646 5645 5644 5644 5644 5643 5643 5642 5642 5642 5642 5643 5644 5644 5644 5645 5646 5647 5648 5649 5650
5667 5664 5662 5659 5656 5654 5653 5651 5649 5648 5646 5645 5644 5643 5641 5640 5640 5639 5638 5637 5636 5636 5635 5635 5635 5634 5634 5634 5634 5635 5635 5636 5636 5636 5636 5638 5639 5640
5662 5659 5656 5654 5651 5648 5647 5645 5643 5642 5640 5638 5637 5636 5635 5634 5633 5632 5631 5630 5629 5629 5628 5627 5627 5627 5627 5626 5626 5626 5626 5627 5627 5627 5627 5627 5628 5629
5657 5654 5651 5649 5646 5644 5641 5639 5638 5636 5634 5632 5631 5630 5628 5627 5626 5625 5623 5623 5622 5622 5621 5620 5619 5618 5619 5618 5618 5617 5617 5617 5617 5617 5617 5618 5618 5619
5652 5649 5647 5644 5642 5640 5637 5635 5633 5631 5629 5627 5626 5624 5623 5621 5620 5618 5616 5615 5614 5614 5613 5612 5611 5610 5609 5610 5609 5608 5608 5608 5608 5607 5607 5607 5608 5609
5648 5645 5642 5640 5638 5635 5633 5631 5628 5626 5624 5622 5621 5619 5617 5616 5614 5612 5610 5608 5607 5606 5605 5604 5603 5602 5601 5601 5600 5600 5599 5598 5598 5598 5597 5597 5598 5598
5644 5642 5639 5637 5634 5632 5630 5627 5625 5623 5620 5618 5616 5614 5612 5610 5608 5605 5604 5602 5600 5598 5597 5596 5595 5593 5592 5592 5591 5591 5590 5589 5588 5588 5588 5588 5588 5589
5641 5639 5636 5633 5631 5629 5626 5624 5621 5619 5616 5614 5611 5609 5607 5604 5602 5600 5598 5596 5594 5592 5590 5589 5587 5586 5584 5583 5582 5582 5581 5580 5579 5579 5579 5579 5579 5579
5639 5637 5634 5631 5628 5626 5623 5621 5618 5615 5613 5610 5607 5604 5602 5599 5597 5594 5592 5590 5588 5586 5584 5582 5580 5579 5577 5576 5574 5573 5573 5572 5571 5571 5570 5570 5570 5571
5637 5635 5632 5629 5626 5623 5620 5617 5615 5612 5609 5605 5603 5600 5598 5595 5593 5590 5587 5585 5582 5580 5578 5576 5574 5572 5571 5569 5568 5567 5566 5565 5564 5563 5563 5563 5563 5563
5636 5633 5630 5627 5624 5620 5617 5615 5612 5608 5605 5603 5600 5597 5594 5592 5589 5586 5583 5580 5577 5575 5572 5570 5568 5566 5565 5564 5562 5560 5559 5558 5557 5557 5556 5556 5556 5556
5636 5632 5629 5626 5622 5618 5615 5612 5609 5606 5603 5600 5597 5594 5591 5588 5585 5582 5579 5576 5573 5570 5568 5565 5563 5560 5559 5557 5556 5555 5553 5552 5551 5550 5550 5549 5549 5549
5635 5631 5628 5625 5621 5617 5613 5610 5606 5603 5600 5597 5594 5591 5588 5584 5581 5578 5575 5572 5569 5566 5563 5561 5558 5555 5553 5552 5551 5549 5548 5546 5545 5544 5543 5543 5542 5542
5634 5630 5627 5623 5619 5616 5612 5608 5604 5601 5597 5594 5591 5587 5584 5581 5577 5574 5571 5568 5565 5562 5559 5556 5554 5551 5549 5547 5545 5544 5542 5541 5540 5538 5537 5537 5536 5536
5633 5629 5626 5622 5618 5614 5610 5606 5602 5598 5594 5591 5587 5584 5580 5577 5574 5570 5567 5564 5561 5558 5555 5552 5550 5547 5545 5542 5540 5538 5537 5536 5535 5533 5532 5531 5531 5530
Wind_Speed
24 25 24 24 24 24 25 26 27 26 26 25 25 25 26 26 26 26 26 27 28 29 29 29 30 30 30 31 32 33 33 33 34 35 36 36 37 38
24 24 23 23 23 24 24 24 25 26 26 25 24 25 25 26 26 26 26 27 28 28 29 29 30 30 30 31 32 33 34 34 35 36 37 38 39 39
24 24 23 22 23 24 24 24 25 25 25 24 25 25 25 26 27 27 26 26 27 28 28 29 30 31 31 30 31 32 33 34 35 36 38 39 39 40
24 22 22 22 23 23 23 24 25 25 25 25 25 26 26 27 27 28 28 27 26 27 27 27 28 29 30 31 31 32 32 33 34 35 37 38 39 40
22 22 21 22 22 22 23 23 24 24 25 26 26 26 26 27 28 27 27 27 26 26 27 26 27 28 28 29 30 31 31 32 33 34 35 37 38 40
22 22 22 21 21 22 22 22 23 23 24 25 26 26 26 26 26 26 26 26 26 26 25 25 26 26 26 27 28 28 29 31 32 32 33 35 37 39
23 22 21 21 22 22 22 22 22 22 22 23 24 25 25 25 25 24 25 25 25 24 24 25 25 25 24 25 26 27 28 29 30 32 33 34 35 36
23 22 21 21 22 22 21 21 20 21 21 22 22 23 23 23 24 24 24 24 23 23 23 24 24 24 25 25 25 26 27 29 30 31 32 34 34 35
23 22 22 21 20 20 20 20 20 21 21 21 21 21 22 22 22 23 23 22 22 22 23 23 23 24 25 25 25 26 27 28 29 30 31 32 33 35
22 21 20 19 19 19 19 19 19 20 21 21 20 21 21 21 22 22 22 22 21 21 22 22 23 24 25 25 26 26 26 27 28 29 31 32 33 35
21 21 20 19 19 19 18 18 18 19 19 19 19 20 21 21 22 22 21 21 21 21 22 23 23 24 24 25 26 27 27 28 28 29 30 31 32 33
20 19 19 18 17 17 17 17 17 18 18 18 18 19 19 20 21 21 21 21 22 22 23 23 23 24 24 25 26 26 27 28 28 29 30 30 31 32
18 17 17 17 17 17 17 17 17 17 18 18 18 19 19 20 21 21 21 22 22 22 23 23 23 24 24 25 26 26 26 28 28 28 29 30 31 31
16 16 17 17 17 17 17 16 16 16 17 17 18 18 19 20 20 21 22 22 21 22 22 23 23 24 24 25 25 25 25 26 27 27 28 29 29 29
16 16 16 16 16 16 16 16 16 17 17 17 17 18 19 19 19 20 20 20 20 21 21 22 22 23 23 24 25 24 25 25 26 26 26 27 27 28
15 15 16 15 14 15 15 16 16 17 18 18 18 18 18 18 18 19 19 19 19 20 21 22 22 22 22 22 23 23 23 24 24 24 24 24 25 25
14 14 14 14 14 14 15 16 16 17 17 17 18 18 17 17 17 18 18 19 19 19 20 20 21 21 21 21 21 20 21 21 21 21 22 23 23 23
14 14 15 15 15 15 16 16 16 17 17 18 17 17 16 16 17 17 18 19 19 19 18 19 19 19 19 19 19 19 19 19 20 20 20 21 21 22
15 15 15 16 16 16 16 17 17 17 17 17 18 17 16 16 17 17 18 18 19 19 18 17 17 17 17 17 17 18 18 18 18 19 20 20 20 20
16 16 16 16 17 17 17 17 17 17 17 17 18 17 17 18 18 18 18 18 18 18 17 17 17 17 17 16 15 16 16 17 17 18 19 20 20 20
16 17 17 17 18 18 18 18 17 17 17 18 18 17 18 18 19 19 18 18 18 18 17 17 17 16 16 16 16 15 16 16 17 17 18 18 18 19
17 17 18 18 19 19 19 19 18 18 18 19 19 19 20 19 19 19 18 18 18 17 17 16 16 16 16 16 16 16 16 16 17 17 17 17 17 17
18 18 18 19 19 20 21 21 20 19 19 20 20 20 20 19 18 18 18 17 17 16 16 16 16 16 16 16 17 16 16 16 16 15 15 15 16 16
Wind_Direction
297 293 289 288 286 282 280 279 277 276 276 276 275 274 273 273 274 274 275 276 275 272 270 268 266 264 260 258 256 255 255 252 250 249 247 247 247 248
297 294 291 289 287 283 281 279 278 278 277 276 275 274 273 274 275 276 277 277 275 274 271 268 265 263 262 260 257 257 255 252 251 250 250 249 249 249
299 296 293 290 285 284 282 280 279 278 278 276 277 277 275 274 274 275 276 277 277 275 273 270 266 263 260 260 259 257 255 254 253 252 251 251 251 249
300 299 296 292 289 287 285 282 280 278 277 277 281 280 277 275 276 276 276 277 278 276 273 271 269 265 261 260 260 257 255 254 253 252 252 252 251 250
302 301 297 294 292 290 288 285 283 280 279 278 279 279 278 277 276 276 277 278 278 276 274 271 269 267 265 263 261 258 256 255 253 252 253 253 253 252
307 304 300 296 294 293 291 289 287 285 282 280 280 280 279 280 278 278 278 279 279 278 275 271 269 267 266 264 261 259 258 257 257 255 254 254 253 254
308 305 299 297 295 295 293 293 290 288 285 281 279 280 281 280 279 279 281 281 281 280 276 274 271 269 266 266 265 263 261 261 261 259 257 257 256 256
310 306 299 297 297 296 294 294 292 290 286 284 281 280 281 281 280 281 283 282 280 279 277 275 272 269 268 266 266 265 265 264 263 261 259 259 258 257
311 307 304 300 299 298 297 295 292 291 289 287 283 281 281 282 283 284 284 282 281 279 278 276 273 272 270 268 267 267 267 266 265 262 261 260 260 258
312 310 309 306 305 303 300 298 294 293 291 290 286 284 284 284 287 286 286 284 281 280 280 278 275 273 271 270 268 268 266 266 266 264 261 260 260 258
311 311 311 310 309 306 304 301 298 297 296 295 293 290 289 287 287 288 287 284 281 280 281 280 278 275 274 272 270 269 268 267 267 265 263 260 260 259
312 312 313 312 312 310 307 305 304 302 301 301 301 298 294 292 292 292 290 285 282 281 282 281 279 277 275 274 273 271 270 269 270 267 264 262 260 260
316 315 315 313 314 315 313 309 306 305 304 303 302 301 298 294 294 294 294 291 287 283 283 281 280 279 277 275 274 273 272 271 270 268 266 264 262 261
324 324 321 317 316 319 317 315 313 312 309 305 301 301 300 299 298 298 297 295 290 288 287 285 283 282 280 278 275 275 273 273 272 270 268 266 264 263
327 326 324 319 317 320 318 317 317 316 314 310 306 306 305 303 302 302 300 298 294 291 290 289 287 285 284 282 278 276 275 275 273 272 269 267 264 262
328 327 325 323 321 321 320 319 320 318 316 314 312 312 311 309 306 306 304 302 298 294 292 290 290 290 290 286 282 279 278 276 274 273 271 270 268 265
333 332 331 330 330 327 323 323 324 324 322 321 319 317 315 314 313 312 310 307 303 298 295 293 294 292 292 291 287 283 281 277 275 274 271 269 268 265
339 337 338 338 337 335 331 330 330 329 328 328 327 324 321 318 317 317 316 313 308 304 301 299 296 292 292 294 291 285 282 281 278 276 276 273 269 266
347 345 344 342 341 339 334 333 333 333 333 332 331 328 325 322 320 320 320 319 315 310 306 305 302 298 297 297 294 291 287 285 281 277 276 274 271 269
354 352 349 348 348 347 343 339 337 334 334 333 332 329 327 324 323 323 323 324 321 316 312 311 309 306 301 299 298 297 293 289 287 283 281 278 272 271
353 353 351 351 351 349 348 344 341 339 338 335 334 332 330 328 327 326 326 326 324 320 316 314 313 310 304 300 299 300 296 292 292 290 286 279 274 274
351 350 348 348 349 348 348 346 343 340 339 336 334 331 329 328 327 327 326 327 325 323 320 316 316 314 307 302 300 300 297 293 291 291 290 285 278 276
353 351 349 347 346 346 346 345 344 342 339 336 334 332 331 330 330 329 328 327 326 326 325 323 320 317 314 310 304 302 298 295 293 291 290 287 282 279